Location: Woodhurst
(52.3667°N, 0.0667°W)
Time: 21:02:29
(UTC+00:00)

Helios 1A - Pass Details

Date: 19 May 2025
Orbit: 544 x 570 km, 98.3° (Epoch: 03 June)

Event Time Altitude Azimuth Distance (km) Brightness Sun altitude
Rises 20:41:15 0° 15° (NNE) 2,790 6.9 -6.1°
Reaches altitude 10° 20:43:25 10° 17° (NNE) 1,886 6.0 -6.4°
Maximum altitude 20:47:30 80° 104° (ESE) 584 2.9 -6.8°
Drops below altitude 10° 20:51:32 10° 192° (SSW) 1,858 5.2 -7.2°
Sets 20:53:40 0° 194° (SSW) 2,746 6.1 -7.5°
